Weather observations for the past three days for
New Bern, Craven County Regional Airport
Imperial (Metric)
Date Time (edt) Wind (mph) Vis. (mi.) Weather Sky Cond. Temperature (ºF) Relative Humidity Wind Chill (°F) Heat Index (°F) Pressure Precipitation (in)
Air Dwpt 6 hour altimeter (in) sea level (mb) 1 hr 3 hr 6 hr
Max. Min.
20 20:54 S 6 G 17 10.00 Fair CLR 81 75.9 85% 87 30.07 1018.3
20 19:54 S 8 10.00 Fair CLR 82.9 75.9 91 82.9 79% 91 30.04 1017.2
20 18:54 SW 12 G 21 10.00 Fair CLR 86 77 75% 97 30.04 1017.2
20 17:54 S 12 10.00 Mostly Cloudy SCT039 BKN050 86 77 75% 97 30.03 1016.9
20 16:54 SW 13 G 20 10.00 A Few Clouds FEW050 91 73 56% 100 30.04 1017.3
20 15:54 SW 10 10.00 Partly Cloudy FEW042 SCT055 90 73.9 59% 99 30.06 1017.8
20 14:54 SW 12 10.00 A Few Clouds FEW044 90 73.9 59% 99 30.07 1018.4
20 13:54 SW 10 G 18 10.00 Mostly Cloudy SCT038 BKN070 89.1 73.9 89.1 75 61% 98 30.09 1019.0
20 12:54 SW 10 G 18 10.00 Partly Cloudy FEW032 SCT042 88 75 66% 98 30.11 1019.7
20 11:54 SW 8 10.00 Partly Cloudy SCT030 SCT036 86 73.9 67% 94 30.12 1019.8
20 10:54 W 6 10.00 A Few Clouds FEW020 FEW026 84.9 75.9 75% 94 30.12 1019.8
20 09:54 W 9 10.00 Fair CLR 82 75 79% 89 30.13 1020.2
20 08:54 SW 5 10.00 A Few Clouds FEW006 FEW110 78.1 73.9 87% 81 30.13 1020.2
20 07:54 S 3 10.00 Overcast OVC110 75 73 75.9 73 94% 73 30.13 1020.2 0.05
20 06:54 SW 3 10.00 Fair CLR 73.9 73 97% 30.11 1019.5
20 05:54 SW 3 10.00 Fair CLR 73 72 96% 30.08 1018.6
20 04:54 Calm 10.00 A Few Clouds FEW004 73.9 73 97% 30.08 1018.5 0.05
20 03:54 SW 5 10.00 A Few Clouds FEW110 73.9 73 97% 30.08 1018.6 0.05
20 02:54 SW 7 9.00 Light Rain FEW095 SCT110 73.9 73 97% 30.09 1018.9
20 01:54 SW 6 10.00 A Few Clouds FEW030 73.9 72 79 73 94% 30.1 1019.4 1.17
20 00:54 S 3 10.00 A Few Clouds FEW041 73.9 72 94% 30.1 1019.4 0.01
19 23:54 S 3 10.00 Light Rain FEW100 73.9 73 97% 30.11 1019.6 0.02
19 22:54 SW 3 10.00 Light Rain FEW060 FEW100 SCT120 73.9 73 97% 30.13 1020.2 1.14
19 21:54 E 7 10.00 Light Rain SCT031 BKN075 BKN100 73.9 72 94% 30.12 1020.0 0.97
19 20:54 NW 6 4.00 Thunderstorm Rain Fog/Mist BKN025 OVC040 78.1 75 90% 81 30.11 1019.4 0.17
19 19:54 NE 5 10.00 Mostly Cloudy FEW023 BKN027 BKN038 79 75 88 79 88% 83 30.08 1018.6
19 18:54 E 6 10.00 Thunderstorm in Vicinity BKN030 BKN050 OVC060 80.1 73 79% 84 30.07 1018.1
19 17:54 SW 8 10.00 Thunderstorm in Vicinity SCT034 BKN045 82 73.9 77% 88 30.05 1017.6
19 16:54 W 6 10.00 A Few Clouds FEW032 88 73.9 63% 97 30.04 1017.1
19 15:54 SW 6 10.00 Mostly Cloudy FEW044 BKN050 86 73 65% 93 30.06 1017.8
19 14:54 NW 7 10.00 A Few Clouds FEW032 86 72 63% 92 30.07 1018.3
19 13:54 W 6 10.00 Mostly Cloudy FEW024 BKN065 84 73 84.9 73.9 70% 90 30.09 1019.0
19 10:54 SW 6 10.00 Mostly Cloudy SCT016 BKN070 80.1 73 79% 84 30.09 1019.0
19 09:54 SW 3 10.00 Mostly Cloudy BKN007 79 72 79% 82 30.09 1018.8
19 08:54 SW 3 10.00 Overcast BKN004 OVC055 75 73 94% 73 30.09 1019.0
19 07:54 S 3 10.00 Overcast SCT003 BKN055 OVC070 73.9 73 73.9 72 97% 30.09 1018.8 0.01
19 06:54 S 5 9.00 Overcast OVC070 73 72 96% 30.06 1018.0
19 05:54 Calm 10.00 A Few Clouds FEW006 FEW070 73 72 96% 30.04 1017.2
19 04:54 NW 5 10.00 A Few Clouds FEW005 73 72 96% 30.02 1016.5 0.01
19 03:54 SW 3 10.00 Partly Cloudy SCT004 72 71.1 97% 29.99 1015.5
19 02:54 SW 3 10.00 Mostly Cloudy BKN004 BKN110 73 72 96% 29.98 1015.2 0.01
19 01:54 S 7 4.00 Rain Fog/Mist BKN100 73 72 80.1 73 96% 30.03 1016.9 0.07 1.7
19 00:54 SW 6 10.00 A Few Clouds FEW120 73 72 96% 30.02 1016.7
18 23:54 SE 6 10.00 Light Rain FEW044 SCT065 BKN085 73 73 100% 30.03 1016.9 0.24
18 22:54 S 3 4.00 Rain Fog/Mist BKN090 OVC110 73.9 73 97% 30.04 1017.3 0.46 1.39
18 21:54 W 6 1.75 Thunderstorm Heavy Rain Fog/Mist SCT007 BKN017 OVC026 73.9 72 94% 30.05 1017.5 0.45
18 20:54 N 7 1.00 Thunderstorm Heavy Rain Fog/Mist BKN026 BKN037 OVC045 73.9 73 97% 30.02 1016.4 0.48
18 19:54 N 17 G 32 10.00 Thunderstorm in Vicinity SCT022 BKN040 80.1 71.1 89.1 80.1 74% 84 29.97 1014.8
18 16:54 S 14 G 25 10.00 Partly Cloudy SCT036 89.1 75 63% 99 29.92 1013.3
18 14:54 S 13 G 22 10.00 Fair CLR 86 73.9 67% 94 29.98 1015.1
18 13:54 SW 13 10.00 Mostly Cloudy FEW035 BKN043 BKN060 86 75 91 77 70% 95 29.99 1015.4
18 12:54 SW 13 G 22 10.00 Mostly Cloudy SCT040 BKN050 90 73.9 59% 99 29.97 1015.0
18 11:54 S 13 G 18 10.00 Fair CLR 89.1 73.9 61% 98 29.98 1015.0
18 07:54 SW 8 10.00 A Few Clouds FEW080 FEW100 FEW120 77 75 81 73.9 94% 78 30 1015.8 0.01
18 06:54 S 3 10.00 Light Rain SCT120 75 73 94% 73 29.99 1015.4
18 05:54 SW 5 10.00 Fair CLR 73.9 72 94% 29.98 1015.2
18 04:54 Calm 10.00 A Few Clouds FEW022 75 72 90% 74 29.97 1014.9 0.01
18 03:54 W 7 10.00 Light Rain BKN055 OVC075 75.9 72 88% 76 29.97 1015.0 0.01
18 02:54 SW 8 10.00 Overcast FEW060 BKN090 OVC120 78.1 71.1 79% 80 29.98 1015.0
18 01:54 SW 8 10.00 A Few Clouds FEW095 81 73.9 82.9 80.1 79% 86 29.96 1014.4
18 00:54 SW 9 G 22 10.00 Fair CLR 82 75.9 82% 89 29.96 1014.5
17 23:54 SW 10 10.00 Mostly Cloudy FEW020 FEW043 BKN110 82 77 85% 90 29.98 1015.2
17 22:54 SW 12 G 22 10.00 Fair CLR 82 77 85% 90 29.99 1015.5
17 21:54 S 9 G 17 10.00 A Few Clouds FEW022 81 75.9 85% 87 29.99 1015.4
Date Time (edt) Wind (mph) Vis. (mi.) Weather Sky Cond. Air Dwpt Max. Min. Relative Humidity Wind Chill (°F) Heat Index (°F) altimeter (in) sea level (mb) 1 hr 3 hr 6 hr
6 hour
Temperature (ºF) Pressure Precipitation (in)